Back to catalog

STARLINK-36111

AliveCommunicationsVLEO
NORAD 66950·PAYLOAD·🇺🇸 United States

Launched Dec 7, 2025 from Vandenberg Space Force Base

Loading…

Next Passes (next 24 hours)

TLE

FreshSource: CelesTrak SupGP

Epoch: Sep 14, 2026, 22:40 UTC

1 66950C 25286AB  26257.94493056 -.00010990  00000+0 -32455-3 0  2570
2 66950  53.1583 195.3440 0001271  85.8114 122.7467 15.34410042    11

Track STARLINK-36111 in real time with AllMySat

Download on the App Store